Location: Hilton Head Island
(32.2163°N, 80.7526°W)
Time: 19:51:16
(UTC-05:00)

Transit 2A - Pass Details

Date: 24 February 2026
Orbit: 590 x 954 km, 66.7° (Epoch: 7 March)

Event Time Altitude Azimuth Distance (km) Brightness Sun altitude
Rises 20:03:13 0° 341° (NNW) 3,493 9.7 -23.2°
Reaches altitude 10° 20:05:58 10° 348° (NNW) 2,500 8.8 -23.8°
Enters shadow 20:10:13 37° 27° (NNE) 1,244 6.8 -24.7°
